owner,sensor,date,latitude,longitude,vertical_datum,sea_water_practical_salinity,qcFlag 
DISL,ioos:station:DISL:DISL:1,2013-01-01T00:00:00Z,30.2513,-88.0778,0.2,24.5,11111222 
DISL,ioos:station:DISL:DISL:1,2013-01-01T00:30:00Z,30.2513,-88.0778,0.2,27.1,11111222 
DISL,ioos:station:DISL:DISL:1,2013-01-01T01:00:00Z,30.2513,-88.0778,0.2,29.1,11111222 
DISL,ioos:station:DISL:DISL:1,2013-01-01T01:30:00Z,30.2513,-88.0778,0.3,30.0,11111222 
DISL,ioos:station:DISL:DISL:1,2013-01-01T02:00:00Z,30.2513,-88.0778,0.3,30.5,11111222 
DISL,ioos:station:DISL:DISL:1,2013-01-01T02:30:00Z,30.2513,-88.0778,0.3,30.6,11111222 
DISL,ioos:station:DISL:DISL:1,2013-01-01T03:00:00Z,30.2513,-88.0778,0.3,30.7,11111222 
DISL,ioos:station:DISL:DISL:1,2013-01-01T03:30:00Z,30.2513,-88.0778,0.4,30.5,11111222 
DISL,ioos:station:DISL:DISL:1,2013-01-01T04:00:00Z,30.2513,-88.0778,0.4,30.6,11111222 
DISL,ioos:station:DISL:DISL:1,2013-01-01T04:30:00Z,30.2513,-88.0778,0.4,28.5,11111222 
DISL,ioos:station:DISL:DISL:1,2013-01-01T05:00:00Z,30.2513,-88.0778,0.4,18.5,11111222 
DISL,ioos:station:DISL:DISL:1,2013-01-01T05:30:00Z,30.2513,-88.0778,0.4,17.0,11111222 
DISL,ioos:station:DISL:DISL:1,2013-01-01T06:00:00Z,30.2513,-88.0778,0.4,15.6,11111222 
DISL,ioos:station:DISL:DISL:1,2013-01-01T06:30:00Z,30.2513,-88.0778,2.130857,14.88,1111122 
DISL,ioos:station:DISL:DISL:1,2013-01-01T07:00:00Z,30.2513,-88.0778,2.1311617,12.22,1111122 
DISL,ioos:station:DISL:DISL:1,2013-01-01T07:30:00Z,30.2513,-88.0778,2.1366482,11.75,1111122 
DISL,ioos:station:DISL:DISL:1,2013-01-01T08:00:00Z,30.2513,-88.0778,2.1131785,11.47,1111122 
DISL,ioos:station:DISL:DISL:1,2013-01-01T08:30:00Z,30.2513,-88.0778,2.0756881,14.15,1111122 
DISL,ioos:station:DISL:DISL:1,2013-01-01T09:00:00Z,30.2513,-88.0778,2.0537424,14.29,1111122 
DISL,ioos:station:DISL:DISL:1,2013-01-01T09:30:00Z,30.2513,-88.0778,2.036064,13.19,1111122 
DISL,ioos:station:DISL:DISL:1,2013-01-01T10:00:00Z,30.2513,-88.0778,2.0302727,13.76,1111122 
DISL,ioos:station:DISL:DISL:1,2013-01-01T10:30:00Z,30.2513,-88.0778,1.9839432,12.48,1111122 
DISL,ioos:station:DISL:DISL:1,2013-01-01T11:00:00Z,30.2513,-88.0778,1.9665697,11.8,1111122 
DISL,ioos:station:DISL:DISL:1,2013-01-01T11:30:00Z,30.2513,-88.0778,1.9641311,11.92,1111122 
DISL,ioos:station:DISL:DISL:1,2013-01-01T12:00:00Z,30.2513,-88.0778,1.9568161,11.98,1111122 
DISL,ioos:station:DISL:DISL:1,2013-01-01T12:30:00Z,30.2513,-88.0778,1.8888457,11.87,1111122 
DISL,ioos:station:DISL:DISL:1,2013-01-01T13:00:00Z,30.2513,-88.0778,1.9199351,11.92,1111122 
DISL,ioos:station:DISL:DISL:1,2013-01-01T13:30:00Z,30.2513,-88.0778,1.9101816,11.93,1111122 
DISL,ioos:station:DISL:DISL:1,2013-01-01T14:00:00Z,30.2513,-88.0778,1.9019519,11.88,1111122 
DISL,ioos:station:DISL:DISL:1,2013-01-01T14:30:00Z,30.2513,-88.0778,1.8681192,11.89,1111122 
DISL,ioos:station:DISL:DISL:1,2013-01-01T15:00:00Z,30.2513,-88.0778,1.8681192,11.61,1111122 
DISL,ioos:station:DISL:DISL:1,2013-01-01T15:30:00Z,30.2513,-88.0778,1.8781776,11.45,1111122 
DISL,ioos:station:DISL:DISL:1,2013-01-01T16:00:00Z,30.2513,-88.0778,1.8690336,11.48,1111122 
DISL,ioos:station:DISL:DISL:1,2013-01-01T16:30:00Z,30.2513,-88.0778,1.8702528,11.47,1111122 
DISL,ioos:station:DISL:DISL:1,2013-01-01T17:00:00Z,30.2513,-88.0778,1.872996,11.9,1111122 
DISL,ioos:station:DISL:DISL:1,2013-01-01T17:30:00Z,30.2513,-88.0778,1.8848833,12.38,1111122 
DISL,ioos:station:DISL:DISL:1,2013-01-01T18:00:00Z,30.2513,-88.0778,1.8510504,12.66,1111122 
DISL,ioos:station:DISL:DISL:1,2013-01-01T18:30:00Z,30.2513,-88.0778,1.8925033,12.73,1111122 
DISL,ioos:station:DISL:DISL:1,2013-01-01T19:00:00Z,30.2513,-88.0778,1.9107913,13.71,1111122 
DISL,ioos:station:DISL:DISL:1,2013-01-01T19:30:00Z,30.2513,-88.0778,1.9275552,15.1,1111122 
DISL,ioos:station:DISL:DISL:1,2013-01-01T20:00:00Z,30.2513,-88.0778,1.9348705,15.16,1111122 
DISL,ioos:station:DISL:DISL:1,2013-01-01T20:30:00Z,30.2513,-88.0778,1.9562064,15.73,1111122 
DISL,ioos:station:DISL:DISL:1,2013-01-01T21:00:00Z,30.2513,-88.0778,1.9641311,16.19,1111122 
DISL,ioos:station:DISL:DISL:1,2013-01-01T21:30:00Z,30.2513,-88.0778,1.9833336,15.91,1111122 
DISL,ioos:station:DISL:DISL:1,2013-01-01T22:00:00Z,30.2513,-88.0778,1.9827241,15.72,1111122 
DISL,ioos:station:DISL:DISL:1,2013-01-01T22:30:00Z,30.2513,-88.0778,2.0095465,15.81,1111122 
DISL,ioos:station:DISL:DISL:1,2013-01-01T23:00:00Z,30.2513,-88.0778,2.0290537,14.91,1111122 
DISL,ioos:station:DISL:DISL:1,2013-01-01T23:30:00Z,30.2513,-88.0778,2.0409408,13.89,1111122 
DISL,ioos:station:DISL:DISL:1,2013-01-02T00:00:00Z,30.2513,-88.0778,2.071116,14.11,1111122 
DISL,ioos:station:DISL:DISL:1,2013-01-02T00:30:00Z,30.2513,-88.0778,2.0427697,13.68,1111122 
DISL,ioos:station:DISL:DISL:1,2013-01-02T01:00:00Z,30.2513,-88.0778,2.054047,11.17,1111122 
DISL,ioos:station:DISL:DISL:1,2013-01-02T01:30:00Z,30.2513,-88.0778,2.0769072,10.87,1111122 
DISL,ioos:station:DISL:DISL:1,2013-01-02T02:00:00Z,30.2513,-88.0778,2.0869656,10.74,1111122 
DISL,ioos:station:DISL:DISL:1,2013-01-02T02:30:00Z,30.2513,-88.0778,2.1028154,11.44,1111122 
DISL,ioos:station:DISL:DISL:1,2013-01-02T03:00:00Z,30.2513,-88.0778,2.092757,17.6,1111122 
DISL,ioos:station:DISL:DISL:1,2013-01-02T03:30:00Z,30.2513,-88.0778,2.1104352,15.1,1111122 
DISL,ioos:station:DISL:DISL:1,2013-01-02T04:00:00Z,30.2513,-88.0778,2.1131785,13.86,1111122 
DISL,ioos:station:DISL:DISL:1,2013-01-02T04:30:00Z,30.2513,-88.0778,2.118055,13.18,1111122 
DISL,ioos:station:DISL:DISL:1,2013-01-02T05:00:00Z,30.2513,-88.0778,2.1253705,14.46,1111122 
DISL,ioos:station:DISL:DISL:1,2013-01-02T05:30:00Z,30.2513,-88.0778,2.1317713,14.76,1111122 
DISL,ioos:station:DISL:DISL:1,2013-01-02T06:00:00Z,30.2513,-88.0778,2.0631912,14.16,1111122 
DISL,ioos:station:DISL:DISL:1,2013-01-02T06:30:00Z,30.2513,-88.0778,2.0820887,13.61,1111122 
DISL,ioos:station:DISL:DISL:1,2013-01-02T07:00:00Z,30.2513,-88.0778,2.0860512,11.2,1111122 
DISL,ioos:station:DISL:DISL:1,2013-01-02T07:30:00Z,30.2513,-88.0778,2.054047,10.92,1111122 
DISL,ioos:station:DISL:DISL:1,2013-01-02T08:00:00Z,30.2513,-88.0778,1.9946113,11.36,1111122 
DISL,ioos:station:DISL:DISL:1,2013-01-02T08:30:00Z,30.2513,-88.0778,2.0150328,10.76,1111122 
DISL,ioos:station:DISL:DISL:1,2013-01-02T09:00:00Z,30.2513,-88.0778,1.9778472,9.74,1111122 
DISL,ioos:station:DISL:DISL:1,2013-01-02T09:30:00Z,30.2513,-88.0778,2.033321,9.63,1111122 
DISL,ioos:station:DISL:DISL:1,2013-01-02T10:00:00Z,30.2513,-88.0778,1.9424905,9.7,1111122 
DISL,ioos:station:DISL:DISL:1,2013-01-02T10:30:00Z,30.2513,-88.0778,1.879092,10.42,1111122 
DISL,ioos:station:DISL:DISL:1,2013-01-02T11:00:00Z,30.2513,-88.0778,1.8848833,10.42,1111122 
DISL,ioos:station:DISL:DISL:1,2013-01-02T11:30:00Z,30.2513,-88.0778,1.8842736,10.36,1111122 
DISL,ioos:station:DISL:DISL:1,2013-01-02T12:00:00Z,30.2513,-88.0778,1.8431256,10.12,1111122 
DISL,ioos:station:DISL:DISL:1,2013-01-02T12:30:00Z,30.2513,-88.0778,1.9022568,9.41,1111122 
DISL,ioos:station:DISL:DISL:1,2013-01-02T13:00:00Z,30.2513,-88.0778,1.7748504,9.34,1111122 
DISL,ioos:station:DISL:DISL:1,2013-01-02T13:30:00Z,30.2513,-88.0778,1.85166,8.99,1111122 
DISL,ioos:station:DISL:DISL:1,2013-01-02T14:00:00Z,30.2513,-88.0778,1.8336768,8.8,1111122 
DISL,ioos:station:DISL:DISL:1,2013-01-02T14:30:00Z,30.2513,-88.0778,1.9053048,8.65,1111122 
DISL,ioos:station:DISL:DISL:1,2013-01-02T15:00:00Z,30.2513,-88.0778,1.8412968,8.63,1111122 
DISL,ioos:station:DISL:DISL:1,2013-01-02T15:30:00Z,30.2513,-88.0778,1.8159984,8.63,1111122 
DISL,ioos:station:DISL:DISL:1,2013-01-02T16:00:00Z,30.2513,-88.0778,1.7995392,8.66,1111122 
DISL,ioos:station:DISL:DISL:1,2013-01-02T16:30:00Z,30.2513,-88.0778,1.7596103,8.69,1111122 
DISL,ioos:station:DISL:DISL:1,2013-01-02T17:00:00Z,30.2513,-88.0778,1.8382488,10.29,1111122 
DISL,ioos:station:DISL:DISL:1,2013-01-02T17:30:00Z,30.2513,-88.0778,1.813865,9.56,1111122 
DISL,ioos:station:DISL:DISL:1,2013-01-02T18:00:00Z,30.2513,-88.0778,1.8248376,10.03,1111122 
DISL,ioos:station:DISL:DISL:1,2013-01-02T18:30:00Z,30.2513,-88.0778,1.827276,10.01,1111122 
DISL,ioos:station:DISL:DISL:1,2013-01-02T19:00:00Z,30.2513,-88.0778,1.8504409,9.65,1111122 
DISL,ioos:station:DISL:DISL:1,2013-01-02T19:30:00Z,30.2513,-88.0778,1.8720816,9.74,1111122 
DISL,ioos:station:DISL:DISL:1,2013-01-02T20:00:00Z,30.2513,-88.0778,1.8687289,9.71,1111122 
DISL,ioos:station:DISL:DISL:1,2013-01-02T20:30:00Z,30.2513,-88.0778,1.8848833,9.84,1111122 
DISL,ioos:station:DISL:DISL:1,2013-01-02T21:00:00Z,30.2513,-88.0778,1.89738,10.23,1111122 
DISL,ioos:station:DISL:DISL:1,2013-01-02T21:30:00Z,30.2513,-88.0778,1.9190208,10.58,1111122 
DISL,ioos:station:DISL:DISL:1,2013-01-02T22:00:00Z,30.2513,-88.0778,1.9565113,10.84,1111122 
DISL,ioos:station:DISL:DISL:1,2013-01-02T22:30:00Z,30.2513,-88.0778,1.9357848,11.59,1111122 
DISL,ioos:station:DISL:DISL:1,2013-01-02T23:00:00Z,30.2513,-88.0778,1.9312128,11.7,1111122 
DISL,ioos:station:DISL:DISL:1,2013-01-02T23:30:00Z,30.2513,-88.0778,1.9488913,11.83,1111122 
DISL,ioos:station:DISL:DISL:1,2013-01-03T00:00:00Z,30.2513,-88.0778,1.9568161,12.02,1111122 
DISL,ioos:station:DISL:DISL:1,2013-01-03T00:30:00Z,30.2513,-88.0778,1.9382232,11.93,1111122 
DISL,ioos:station:DISL:DISL:1,2013-01-03T01:00:00Z,30.2513,-88.0778,1.9784569,11.88,1111122 
DISL,ioos:station:DISL:DISL:1,2013-01-03T01:30:00Z,30.2513,-88.0778,1.9610832,10.5,1111122 
DISL,ioos:station:DISL:DISL:1,2013-01-03T02:00:00Z,30.2513,-88.0778,1.9915632,9.12,1111122 
DISL,ioos:station:DISL:DISL:1,2013-01-03T02:30:00Z,30.2513,-88.0778,2.0034504,8.92,1111122 
DISL,ioos:station:DISL:DISL:1,2013-01-03T03:00:00Z,30.2513,-88.0778,2.00406,8.82,1111122 
DISL,ioos:station:DISL:DISL:1,2013-01-03T03:30:00Z,30.2513,-88.0778,1.9863816,8.55,1111122 
DISL,ioos:station:DISL:DISL:1,2013-01-03T04:00:00Z,30.2513,-88.0778,2.0577047,8.43,1111122 
DISL,ioos:station:DISL:DISL:1,2013-01-03T04:30:00Z,30.2513,-88.0778,1.9083529,8.82,1111122 
DISL,ioos:station:DISL:DISL:1,2013-01-03T05:00:00Z,30.2513,-88.0778,2.0769072,9.13,1111122 
DISL,ioos:station:DISL:DISL:1,2013-01-03T05:30:00Z,30.2513,-88.0778,2.0016215,9.93,1111122 
DISL,ioos:station:DISL:DISL:1,2013-01-03T06:00:00Z,30.2513,-88.0778,2.1022055,9.56,1111122 
DISL,ioos:station:DISL:DISL:1,2013-01-03T06:30:00Z,30.2513,-88.0778,1.894332,9.66,1111122 
DISL,ioos:station:DISL:DISL:1,2013-01-03T07:00:00Z,30.2513,-88.0778,1.959864,9.74,1111122 
DISL,ioos:station:DISL:DISL:1,2013-01-03T07:30:00Z,30.2513,-88.0778,1.9162776,9.74,1111122 
DISL,ioos:station:DISL:DISL:1,2013-01-03T08:00:00Z,30.2513,-88.0778,1.9373088,9.61,1111122 
DISL,ioos:station:DISL:DISL:1,2013-01-03T08:30:00Z,30.2513,-88.0778,1.837944,9.18,1111122 
DISL,ioos:station:DISL:DISL:1,2013-01-03T09:00:00Z,30.2513,-88.0778,1.865376,9.19,1111122 
DISL,ioos:station:DISL:DISL:1,2013-01-03T09:30:00Z,30.2513,-88.0778,1.834896,9.01,1111122 
DISL,ioos:station:DISL:DISL:1,2013-01-03T10:00:00Z,30.2513,-88.0778,1.92024,8.95,1111122 
DISL,ioos:station:DISL:DISL:1,2013-01-03T10:30:00Z,30.2513,-88.0778,1.9418808,8.53,1111122 
DISL,ioos:station:DISL:DISL:1,2013-01-03T11:00:00Z,30.2513,-88.0778,1.9062192,8.43,1111122 
DISL,ioos:station:DISL:DISL:1,2013-01-03T11:30:00Z,30.2513,-88.0778,1.8967705,8.42,1111122 
DISL,ioos:station:DISL:DISL:1,2013-01-03T12:00:00Z,30.2513,-88.0778,1.9007329,8.34,1111122 
DISL,ioos:station:DISL:DISL:1,2013-01-03T12:30:00Z,30.2513,-88.0778,1.8931128,8.31,1111122 
DISL,ioos:station:DISL:DISL:1,2013-01-03T13:00:00Z,30.2513,-88.0778,1.9031712,8.73,1111122 
DISL,ioos:station:DISL:DISL:1,2013-01-03T13:30:00Z,30.2513,-88.0778,1.8967705,8.74,1111122 
DISL,ioos:station:DISL:DISL:1,2013-01-03T14:00:00Z,30.2513,-88.0778,1.9196304,8.27,1111122 
DISL,ioos:station:DISL:DISL:1,2013-01-03T14:30:00Z,30.2513,-88.0778,1.8845785,8.23,1111122 
DISL,ioos:station:DISL:DISL:1,2013-01-03T15:00:00Z,30.2513,-88.0778,1.8571464,8.29,1111122 
DISL,ioos:station:DISL:DISL:1,2013-01-03T15:30:00Z,30.2513,-88.0778,1.8397727,8.3,1111122 
DISL,ioos:station:DISL:DISL:1,2013-01-03T16:00:00Z,30.2513,-88.0778,1.8720816,8.39,1111122 
DISL,ioos:station:DISL:DISL:1,2013-01-03T16:30:00Z,30.2513,-88.0778,1.8650712,8.32,1111122 
DISL,ioos:station:DISL:DISL:1,2013-01-03T17:00:00Z,30.2513,-88.0778,1.8568417,8.32,1111122 
DISL,ioos:station:DISL:DISL:1,2013-01-03T17:30:00Z,30.2513,-88.0778,1.8711672,8.37,1111122 
DISL,ioos:station:DISL:DISL:1,2013-01-03T18:00:00Z,30.2513,-88.0778,1.8720816,8.66,1111122 
DISL,ioos:station:DISL:DISL:1,2013-01-03T18:30:00Z,30.2513,-88.0778,1.8391632,8.79,1111122 
DISL,ioos:station:DISL:DISL:1,2013-01-03T19:00:00Z,30.2513,-88.0778,1.879092,8.75,1111122 
DISL,ioos:station:DISL:DISL:1,2013-01-03T19:30:00Z,30.2513,-88.0778,1.871472,8.67,1111122 
DISL,ioos:station:DISL:DISL:1,2013-01-03T20:00:00Z,30.2513,-88.0778,1.8778727,8.58,1111122 
DISL,ioos:station:DISL:DISL:1,2013-01-03T20:30:00Z,30.2513,-88.0778,1.8903697,8.51,1111122 
DISL,ioos:station:DISL:DISL:1,2013-01-03T21:00:00Z,30.2513,-88.0778,1.8992088,8.45,1111122 
DISL,ioos:station:DISL:DISL:1,2013-01-03T21:30:00Z,30.2513,-88.0778,1.9138392,8.72,1111122 
DISL,ioos:station:DISL:DISL:1,2013-01-03T22:00:00Z,30.2513,-88.0778,1.9467577,9.11,1111122 
DISL,ioos:station:DISL:DISL:1,2013-01-03T22:30:00Z,30.2513,-88.0778,1.905,9.18,1111122 
DISL,ioos:station:DISL:DISL:1,2013-01-03T23:00:00Z,30.2513,-88.0778,2.0150328,9.34,1111122 
DISL,ioos:station:DISL:DISL:1,2013-01-03T23:30:00Z,30.2513,-88.0778,2.0061936,8.38,1111122 
DISL,ioos:station:DISL:DISL:1,2013-01-04T00:00:00Z,30.2513,-88.0778,1.9854672,8.46,1111122 
DISL,ioos:station:DISL:DISL:1,2013-01-04T00:30:00Z,30.2513,-88.0778,1.9924777,9.25,1111122 
DISL,ioos:station:DISL:DISL:1,2013-01-04T01:00:00Z,30.2513,-88.0778,2.083308,9.18,1111122 
DISL,ioos:station:DISL:DISL:1,2013-01-04T01:30:00Z,30.2513,-88.0778,1.9936968,9.1,1111122 
DISL,ioos:station:DISL:DISL:1,2013-01-04T02:00:00Z,30.2513,-88.0778,2.01168,9.04,1111122 
DISL,ioos:station:DISL:DISL:1,2013-01-04T02:30:00Z,30.2513,-88.0778,1.987296,8.95,1111122 
DISL,ioos:station:DISL:DISL:1,2013-01-04T03:00:00Z,30.2513,-88.0778,2.0007071,8.67,1111122 
DISL,ioos:station:DISL:DISL:1,2013-01-04T03:30:00Z,30.2513,-88.0778,2.0726402,8.64,1111122 
DISL,ioos:station:DISL:DISL:1,2013-01-04T04:00:00Z,30.2513,-88.0778,1.9863816,8.43,1111122 
DISL,ioos:station:DISL:DISL:1,2013-01-04T04:30:00Z,30.2513,-88.0778,1.9940016,8.18,1111122 
DISL,ioos:station:DISL:DISL:1,2013-01-04T05:00:00Z,30.2513,-88.0778,2.0061936,8.1,1111122 
DISL,ioos:station:DISL:DISL:1,2013-01-04T05:30:00Z,30.2513,-88.0778,2.01168,7.93,1111122 
DISL,ioos:station:DISL:DISL:1,2013-01-04T06:00:00Z,30.2513,-88.0778,1.990344,8.37,1111122 
DISL,ioos:station:DISL:DISL:1,2013-01-04T06:30:00Z,30.2513,-88.0778,1.9683985,7.76,1111122 
DISL,ioos:station:DISL:DISL:1,2013-01-04T07:00:00Z,30.2513,-88.0778,1.8894552,8.03,1111122 
DISL,ioos:station:DISL:DISL:1,2013-01-04T07:30:00Z,30.2513,-88.0778,1.9781519,8.44,1111122 
DISL,ioos:station:DISL:DISL:1,2013-01-04T08:00:00Z,30.2513,-88.0778,2.0156424,8.39,1111122 
DISL,ioos:station:DISL:DISL:1,2013-01-04T08:30:00Z,30.2513,-88.0778,1.9662648,8.39,1111122 
DISL,ioos:station:DISL:DISL:1,2013-01-04T09:00:00Z,30.2513,-88.0778,1.9863816,8.32,1111122 
DISL,ioos:station:DISL:DISL:1,2013-01-04T09:30:00Z,30.2513,-88.0778,1.9632168,8.42,1111122 
DISL,ioos:station:DISL:DISL:1,2013-01-04T10:00:00Z,30.2513,-88.0778,1.9150584,8.21,1111122 
DISL,ioos:station:DISL:DISL:1,2013-01-04T10:30:00Z,30.2513,-88.0778,1.9851624,7.86,1111122 
DISL,ioos:station:DISL:DISL:1,2013-01-04T11:00:00Z,30.2513,-88.0778,1.9470624,7.71,1111122 
DISL,ioos:station:DISL:DISL:1,2013-01-04T11:30:00Z,30.2513,-88.0778,1.9824193,7.62,1111122 
DISL,ioos:station:DISL:DISL:1,2013-01-04T12:00:00Z,30.2513,-88.0778,1.9495008,7.52,1111122 
DISL,ioos:station:DISL:DISL:1,2013-01-04T12:30:00Z,30.2513,-88.0778,1.9275552,7.49,1111122 
DISL,ioos:station:DISL:DISL:1,2013-01-04T13:00:00Z,30.2513,-88.0778,1.9458432,7.43,1111122 
DISL,ioos:station:DISL:DISL:1,2013-01-04T13:30:00Z,30.2513,-88.0778,1.8867121,7.41,1111122 
DISL,ioos:station:DISL:DISL:1,2013-01-04T14:00:00Z,30.2513,-88.0778,1.9513296,7.41,1111122 
DISL,ioos:station:DISL:DISL:1,2013-01-04T14:30:00Z,30.2513,-88.0778,1.9513296,7.44,1111122 
DISL,ioos:station:DISL:DISL:1,2013-01-04T15:00:00Z,30.2513,-88.0778,1.8845785,7.5,1111122 
DISL,ioos:station:DISL:DISL:1,2013-01-04T15:30:00Z,30.2513,-88.0778,1.9187161,7.51,1111122 
DISL,ioos:station:DISL:DISL:1,2013-01-04T16:00:00Z,30.2513,-88.0778,1.8918935,7.51,1111122 
DISL,ioos:station:DISL:DISL:1,2013-01-04T16:30:00Z,30.2513,-88.0778,1.9363945,7.5,1111122 
DISL,ioos:station:DISL:DISL:1,2013-01-04T17:00:00Z,30.2513,-88.0778,1.9101816,7.51,1111122 
DISL,ioos:station:DISL:DISL:1,2013-01-04T17:30:00Z,30.2513,-88.0778,1.9333464,7.84,1111122 
DISL,ioos:station:DISL:DISL:1,2013-01-04T18:00:00Z,30.2513,-88.0778,1.9306033,7.73,1111122 
DISL,ioos:station:DISL:DISL:1,2013-01-04T18:30:00Z,30.2513,-88.0778,1.941576,7.79,1111122 
DISL,ioos:station:DISL:DISL:1,2013-01-04T19:00:00Z,30.2513,-88.0778,1.9080482,11.56,1111122 
DISL,ioos:station:DISL:DISL:1,2013-01-04T19:30:00Z,30.2513,-88.0778,1.9440143,13.89,1111122 
DISL,ioos:station:DISL:DISL:1,2013-01-04T20:00:00Z,30.2513,-88.0778,1.9366993,16.42,1111122 
DISL,ioos:station:DISL:DISL:1,2013-01-04T20:30:00Z,30.2513,-88.0778,1.9641311,15.36,1111122 
DISL,ioos:station:DISL:DISL:1,2013-01-04T21:00:00Z,30.2513,-88.0778,1.953768,19.02,1111122 
DISL,ioos:station:DISL:DISL:1,2013-01-04T21:30:00Z,30.2513,-88.0778,1.9717512,21.8,1111122 
DISL,ioos:station:DISL:DISL:1,2013-01-04T22:00:00Z,30.2513,-88.0778,1.997964,17.03,1111122 
DISL,ioos:station:DISL:DISL:1,2013-01-04T22:30:00Z,30.2513,-88.0778,2.007108,20.97,1111122 
DISL,ioos:station:DISL:DISL:1,2013-01-04T23:00:00Z,30.2513,-88.0778,1.9958304,20.03,1111122 
DISL,ioos:station:DISL:DISL:1,2013-01-04T23:30:00Z,30.2513,-88.0778,2.029663,16.59,1111122 
DISL,ioos:station:DISL:DISL:1,2013-01-05T00:00:00Z,30.2513,-88.0778,2.0232625,10.35,1111122 
DISL,ioos:station:DISL:DISL:1,2013-01-05T00:30:00Z,30.2513,-88.0778,2.0388072,10.53,1111122 
DISL,ioos:station:DISL:DISL:1,2013-01-05T01:00:00Z,30.2513,-88.0778,2.041855,9.16,1111122 
DISL,ioos:station:DISL:DISL:1,2013-01-05T01:30:00Z,30.2513,-88.0778,2.0430744,9.18,1111122 
DISL,ioos:station:DISL:DISL:1,2013-01-05T02:00:00Z,30.2513,-88.0778,2.0193,8.95,1111122 
DISL,ioos:station:DISL:DISL:1,2013-01-05T02:30:00Z,30.2513,-88.0778,2.033321,9.1,1111122 
DISL,ioos:station:DISL:DISL:1,2013-01-05T03:00:00Z,30.2513,-88.0778,2.013204,8.7,1111122 
DISL,ioos:station:DISL:DISL:1,2013-01-05T03:30:00Z,30.2513,-88.0778,2.0150328,8.22,1111122 
DISL,ioos:station:DISL:DISL:1,2013-01-05T04:00:00Z,30.2513,-88.0778,1.9915632,7.92,1111122 
DISL,ioos:station:DISL:DISL:1,2013-01-05T04:30:00Z,30.2513,-88.0778,1.9790665,7.61,1111122 
DISL,ioos:station:DISL:DISL:1,2013-01-05T05:00:00Z,30.2513,-88.0778,1.9720559,7.6,1111122 
DISL,ioos:station:DISL:DISL:1,2013-01-05T05:30:00Z,30.2513,-88.0778,1.9446241,7.67,1111122 
DISL,ioos:station:DISL:DISL:1,2013-01-05T06:00:00Z,30.2513,-88.0778,1.9473672,7.75,1111122 
DISL,ioos:station:DISL:DISL:1,2013-01-05T06:30:00Z,30.2513,-88.0778,1.9238975,8.21,1111122 
DISL,ioos:station:DISL:DISL:1,2013-01-05T07:00:00Z,30.2513,-88.0778,1.9650457,8.41,1111122 
DISL,ioos:station:DISL:DISL:1,2013-01-05T07:30:00Z,30.2513,-88.0778,1.8940272,8.41,1111122 
DISL,ioos:station:DISL:DISL:1,2013-01-05T08:00:00Z,30.2513,-88.0778,1.8992088,8.37,1111122 
DISL,ioos:station:DISL:DISL:1,2013-01-05T08:30:00Z,30.2513,-88.0778,1.8833592,8.32,1111122 
DISL,ioos:station:DISL:DISL:1,2013-01-05T09:00:00Z,30.2513,-88.0778,1.8921984,8.17,1111122 
DISL,ioos:station:DISL:DISL:1,2013-01-05T09:30:00Z,30.2513,-88.0778,1.8537935,8.08,1111122 
DISL,ioos:station:DISL:DISL:1,2013-01-05T10:00:00Z,30.2513,-88.0778,1.8611088,8.09,1111122 
DISL,ioos:station:DISL:DISL:1,2013-01-05T10:30:00Z,30.2513,-88.0778,1.8681192,8.06,1111122 
DISL,ioos:station:DISL:DISL:1,2013-01-05T11:00:00Z,30.2513,-88.0778,1.8711672,8.04,1111122 
DISL,ioos:station:DISL:DISL:1,2013-01-05T11:30:00Z,30.2513,-88.0778,1.8665953,7.99,1111122 
DISL,ioos:station:DISL:DISL:1,2013-01-05T12:00:00Z,30.2513,-88.0778,1.8745201,7.95,1111122 
DISL,ioos:station:DISL:DISL:1,2013-01-05T12:30:00Z,30.2513,-88.0778,1.8608041,7.98,1111122 
DISL,ioos:station:DISL:DISL:1,2013-01-05T13:00:00Z,30.2513,-88.0778,1.865376,7.97,1111122 
DISL,ioos:station:DISL:DISL:1,2013-01-05T13:30:00Z,30.2513,-88.0778,1.8376392,7.88,1111122 
DISL,ioos:station:DISL:DISL:1,2013-01-05T14:00:00Z,30.2513,-88.0778,1.8540984,7.88,1111122 
DISL,ioos:station:DISL:DISL:1,2013-01-05T14:30:00Z,30.2513,-88.0778,1.8873216,7.89,1111122 
DISL,ioos:station:DISL:DISL:1,2013-01-05T15:00:00Z,30.2513,-88.0778,1.8818351,7.81,1111122 
DISL,ioos:station:DISL:DISL:1,2013-01-05T15:30:00Z,30.2513,-88.0778,1.909572,7.9,1111122 
DISL,ioos:station:DISL:DISL:1,2013-01-05T16:00:00Z,30.2513,-88.0778,1.8992088,7.89,1111122 
DISL,ioos:station:DISL:DISL:1,2013-01-05T16:30:00Z,30.2513,-88.0778,1.8946369,7.95,1111122 
DISL,ioos:station:DISL:DISL:1,2013-01-05T17:00:00Z,30.2513,-88.0778,1.8949416,8.69,1111122 
DISL,ioos:station:DISL:DISL:1,2013-01-05T17:30:00Z,30.2513,-88.0778,1.915668,10.05,1111122 
DISL,ioos:station:DISL:DISL:1,2013-01-05T18:00:00Z,30.2513,-88.0778,1.9242024,11.66,1111122 
DISL,ioos:station:DISL:DISL:1,2013-01-05T18:30:00Z,30.2513,-88.0778,1.9226785,12.92,1111122 
DISL,ioos:station:DISL:DISL:1,2013-01-05T19:00:00Z,30.2513,-88.0778,1.8949416,16.88,1111122 
DISL,ioos:station:DISL:DISL:1,2013-01-05T19:30:00Z,30.2513,-88.0778,1.9650457,23.96,1111122 
DISL,ioos:station:DISL:DISL:1,2013-01-05T20:00:00Z,30.2513,-88.0778,1.961388,27.11,1111122 
DISL,ioos:station:DISL:DISL:1,2013-01-05T20:30:00Z,30.2513,-88.0778,1.9726657,27.99,1111122 
DISL,ioos:station:DISL:DISL:1,2013-01-05T21:00:00Z,30.2513,-88.0778,1.9769329,22.98,1111122 
DISL,ioos:station:DISL:DISL:1,2013-01-05T21:30:00Z,30.2513,-88.0778,1.987296,23.93,1111122 
DISL,ioos:station:DISL:DISL:1,2013-01-05T22:00:00Z,30.2513,-88.0778,2.0052793,20.38,1111122 
DISL,ioos:station:DISL:DISL:1,2013-01-05T22:30:00Z,30.2513,-88.0778,2.0110705,21.1,1111122 
DISL,ioos:station:DISL:DISL:1,2013-01-05T23:00:00Z,30.2513,-88.0778,2.0625818,9.21,1111122 
DISL,ioos:station:DISL:DISL:1,2013-01-05T23:30:00Z,30.2513,-88.0778,2.0555713,14.61,1111122 
DISL,ioos:station:DISL:DISL:1,2013-01-06T00:00:00Z,30.2513,-88.0778,2.0766025,10.6,1111122 
DISL,ioos:station:DISL:DISL:1,2013-01-06T00:30:00Z,30.2513,-88.0778,2.0769072,9.3,1111122 
DISL,ioos:station:DISL:DISL:1,2013-01-06T01:00:00Z,30.2513,-88.0778,2.0653248,8.17,1111122 
DISL,ioos:station:DISL:DISL:1,2013-01-06T01:30:00Z,30.2513,-88.0778,2.0567904,8.22,1111122 
DISL,ioos:station:DISL:DISL:1,2013-01-06T02:00:00Z,30.2513,-88.0778,2.0442936,8.06,1111122 
DISL,ioos:station:DISL:DISL:1,2013-01-06T02:30:00Z,30.2513,-88.0778,2.066544,7.89,1111122 
DISL,ioos:station:DISL:DISL:1,2013-01-06T03:00:00Z,30.2513,-88.0778,2.0336256,7.89,1111122 
DISL,ioos:station:DISL:DISL:1,2013-01-06T03:30:00Z,30.2513,-88.0778,2.0104609,7.81,1111122 
DISL,ioos:station:DISL:DISL:1,2013-01-06T04:00:00Z,30.2513,-88.0778,2.0019264,7.82,1111122 
DISL,ioos:station:DISL:DISL:1,2013-01-06T04:30:00Z,30.2513,-88.0778,1.9839432,7.8,1111122 
DISL,ioos:station:DISL:DISL:1,2013-01-06T05:00:00Z,30.2513,-88.0778,1.9555968,7.8,1111122 
DISL,ioos:station:DISL:DISL:1,2013-01-06T05:30:00Z,30.2513,-88.0778,1.9446241,7.78,1111122 
DISL,ioos:station:DISL:DISL:1,2013-01-06T06:00:00Z,30.2513,-88.0778,1.8961608,7.76,1111122 
DISL,ioos:station:DISL:DISL:1,2013-01-06T06:30:00Z,30.2513,-88.0778,1.9016472,7.76,1111122 
DISL,ioos:station:DISL:DISL:1,2013-01-06T07:00:00Z,30.2513,-88.0778,1.9040856,7.75,1111122 
DISL,ioos:station:DISL:DISL:1,2013-01-06T07:30:00Z,30.2513,-88.0778,1.8595848,7.74,1111122 
DISL,ioos:station:DISL:DISL:1,2013-01-06T08:00:00Z,30.2513,-88.0778,1.83642,7.74,1111122 
DISL,ioos:station:DISL:DISL:1,2013-01-06T08:30:00Z,30.2513,-88.0778,1.876044,7.71,1111122 
DISL,ioos:station:DISL:DISL:1,2013-01-06T09:00:00Z,30.2513,-88.0778,1.8373344,7.7,1111122 
DISL,ioos:station:DISL:DISL:1,2013-01-06T09:30:00Z,30.2513,-88.0778,1.8254472,7.7,1111122 